TimeEST,TemperatureF,Dew PointF,Humidity,Sea Level PressureIn,VisibilityMPH,Wind Direction,Wind SpeedMPH,Gust SpeedMPH,PrecipitationIn,Events,Conditions,WindDirDegrees,DateUTC
12:15 AM,5.4,-4.4,64,30.04,10.0,WSW,10.4,-,N/A,,Clear,240,2014-02-08 05:15:00
12:34 AM,5.5,-4.4,64,30.04,10.0,WSW,13.8,-,N/A,,Scattered Clouds,250,2014-02-08 05:34:00
12:55 AM,5.7,-4.5,63,30.04,10.0,West,12.7,-,N/A,,Mostly Cloudy,260,2014-02-08 05:55:00
1:15 AM,5.5,-4.9,62,30.05,10.0,WSW,12.7,-,N/A,,Scattered Clouds,250,2014-02-08 06:15:00
1:34 AM,5.4,-5.1,62,30.04,10.0,WSW,13.8,-,N/A,,Clear,250,2014-02-08 06:34:00
1:55 AM,5.2,-5.6,61,30.05,10.0,West,13.8,-,N/A,,Clear,260,2014-02-08 06:55:00
2:15 AM,4.8,-5.6,62,30.06,10.0,WSW,11.5,-,N/A,,Clear,250,2014-02-08 07:15:00
2:35 AM,4.1,-6.0,63,30.07,10.0,WSW,9.2,-,N/A,,Scattered Clouds,240,2014-02-08 07:35:00
2:55 AM,4.6,-5.6,63,30.07,10.0,SW,9.2,-,N/A,,Mostly Cloudy,230,2014-02-08 07:55:00
3:15 AM,4.1,-5.8,64,30.07,10.0,WSW,11.5,-,N/A,,Scattered Clouds,240,2014-02-08 08:15:00
3:35 AM,3.7,-6.2,64,30.08,10.0,WSW,9.2,-,N/A,,Clear,240,2014-02-08 08:35:00
3:55 AM,2.8,-6.5,65,30.08,10.0,WSW,9.2,-,N/A,,Scattered Clouds,250,2014-02-08 08:55:00
4:14 AM,2.3,-6.7,66,30.08,10.0,WSW,9.2,-,N/A,,Scattered Clouds,240,2014-02-08 09:14:00
4:35 AM,1.8,-6.9,67,30.09,10.0,WSW,9.2,-,N/A,,Clear,240,2014-02-08 09:35:00
4:54 AM,1.4,-6.9,68,30.10,10.0,West,10.4,-,N/A,,Clear,260,2014-02-08 09:54:00
5:15 AM,1.4,-6.9,68,30.10,10.0,West,11.5,-,N/A,,Clear,260,2014-02-08 10:15:00
5:35 AM,1.0,-7.2,68,30.10,10.0,WSW,11.5,-,N/A,,Clear,250,2014-02-08 10:35:00
5:54 AM,0.5,-7.6,69,30.10,10.0,West,10.4,-,N/A,,Clear,260,2014-02-08 10:54:00
6:15 AM,-0.6,-7.6,72,30.10,10.0,West,9.2,-,N/A,,Clear,260,2014-02-08 11:15:00
6:35 AM,-0.9,-7.8,73,30.10,10.0,West,9.2,-,N/A,,Clear,270,2014-02-08 11:35:00
6:55 AM,-1.7,-8.1,74,30.10,10.0,West,9.2,-,N/A,,Clear,260,2014-02-08 11:55:00
7:15 AM,-2.0,-8.5,74,30.11,10.0,West,8.1,-,N/A,,Clear,260,2014-02-08 12:15:00
7:35 AM,-2.2,-8.5,75,30.11,10.0,WSW,5.8,-,N/A,,Clear,240,2014-02-08 12:35:00
7:55 AM,-2.4,-8.5,75,30.11,10.0,WSW,6.9,-,N/A,,Clear,240,2014-02-08 12:55:00
8:15 AM,-2.4,-8.5,75,30.12,10.0,WSW,6.9,-,N/A,,Clear,240,2014-02-08 13:15:00
8:34 AM,-2.0,-8.5,74,30.12,10.0,WSW,6.9,-,N/A,,Clear,240,2014-02-08 13:34:00
8:55 AM,-1.7,-8.5,73,30.12,10.0,WSW,8.1,-,N/A,,Clear,250,2014-02-08 13:55:00
9:15 AM,-0.4,-7.8,71,30.12,10.0,WSW,4.6,-,N/A,,Clear,250,2014-02-08 14:15:00
9:34 AM,0.7,-7.2,69,30.13,10.0,WSW,3.5,-,N/A,,Clear,240,2014-02-08 14:34:00
9:55 AM,2.1,-6.2,68,30.13,10.0,Calm,Calm,-,N/A,,Clear,0,2014-02-08 14:55:00
10:15 AM,3.7,-5.1,67,30.13,10.0,Calm,Calm,-,N/A,,Clear,0,2014-02-08 15:15:00
10:35 AM,5.4,-4.0,65,30.13,10.0,Calm,Calm,-,N/A,,Clear,0,2014-02-08 15:35:00
10:55 AM,6.3,-3.8,63,30.13,10.0,Calm,Calm,-,N/A,,Clear,0,2014-02-08 15:55:00
11:14 AM,8.1,-2.2,63,30.13,10.0,Calm,Calm,-,N/A,,Clear,0,2014-02-08 16:14:00
11:35 AM,10.0,-0.0,64,30.13,10.0,Calm,Calm,-,N/A,,Clear,0,2014-02-08 16:35:00
11:55 AM,9.7,0.5,66,30.12,10.0,Calm,Calm,-,N/A,,Clear,0,2014-02-08 16:55:00
12:15 PM,14.7,2.3,58,30.12,10.0,WSW,3.5,-,N/A,,Clear,250,2014-02-08 17:15:00
12:35 PM,14.0,2.5,60,30.11,10.0,SW,4.6,-,N/A,,Clear,230,2014-02-08 17:35:00
12:54 PM,14.5,3.2,61,30.10,10.0,South,5.8,-,N/A,,Clear,190,2014-02-08 17:54:00
1:15 PM,15.3,3.2,59,30.10,10.0,SSW,5.8,-,N/A,,Clear,200,2014-02-08 18:15:00
1:35 PM,15.8,1.8,54,30.09,10.0,SW,4.6,-,N/A,,Clear,220,2014-02-08 18:35:00
1:54 PM,15.8,2.5,56,30.08,10.0,Calm,Calm,-,N/A,,Clear,0,2014-02-08 18:54:00
2:15 PM,15.4,1.8,55,30.08,10.0,Calm,Calm,-,N/A,,Scattered Clouds,0,2014-02-08 19:15:00
2:35 PM,15.8,3.0,57,30.07,10.0,South,4.6,-,N/A,,Scattered Clouds,190,2014-02-08 19:35:00
2:54 PM,15.8,3.4,58,30.07,10.0,SSW,6.9,-,N/A,,Scattered Clouds,210,2014-02-08 19:54:00
3:15 PM,14.7,3.7,62,30.07,10.0,SSW,9.2,-,N/A,,Clear,200,2014-02-08 20:15:00
3:35 PM,14.4,4.3,64,30.07,10.0,South,9.2,-,N/A,,Clear,190,2014-02-08 20:35:00
3:55 PM,14.9,5.9,68,30.07,10.0,SSW,6.9,-,N/A,,Mostly Cloudy,200,2014-02-08 20:55:00
4:15 PM,13.1,5.7,72,30.07,10.0,South,10.4,-,N/A,,Scattered Clouds,190,2014-02-08 21:15:00
4:35 PM,13.5,5.4,70,30.08,10.0,South,10.4,-,N/A,,Scattered Clouds,190,2014-02-08 21:35:00
4:55 PM,13.1,5.0,70,30.07,10.0,South,8.1,-,N/A,,Scattered Clouds,190,2014-02-08 21:55:00
5:15 PM,12.2,4.5,71,30.07,10.0,South,6.9,-,N/A,,Clear,190,2014-02-08 22:15:00
5:34 PM,11.7,3.9,71,30.07,10.0,South,6.9,-,N/A,,Clear,180,2014-02-08 22:34:00
5:55 PM,10.4,3.4,73,30.07,10.0,South,5.8,-,N/A,,Clear,180,2014-02-08 22:55:00
6:15 PM,9.3,3.0,76,30.07,10.0,South,5.8,-,N/A,,Clear,180,2014-02-08 23:15:00
6:34 PM,8.8,2.5,76,30.07,10.0,South,6.9,-,N/A,,Clear,190,2014-02-08 23:34:00
6:55 PM,7.0,1.6,79,30.08,10.0,SSW,6.9,-,N/A,,Clear,200,2014-02-08 23:55:00
7:15 PM,5.9,0.7,79,30.08,10.0,SSW,6.9,-,N/A,,Clear,200,2014-02-09 00:15:00
7:35 PM,5.9,1.2,81,30.08,10.0,SSW,5.8,-,N/A,,Clear,210,2014-02-09 00:35:00
7:55 PM,3.2,-0.6,84,30.08,10.0,SW,5.8,-,N/A,,Clear,220,2014-02-09 00:55:00
8:14 PM,4.1,-0.0,83,30.08,10.0,SSW,5.8,-,N/A,,Clear,210,2014-02-09 01:14:00
8:35 PM,1.9,0.7,94,30.08,10.0,WNW,3.5,-,N/A,,Clear,300,2014-02-09 01:35:00
8:55 PM,-1.8,-5.4,85,30.08,10.0,Calm,Calm,-,N/A,,Clear,0,2014-02-09 01:55:00
9:14 PM,-1.5,-3.5,91,30.08,10.0,Calm,Calm,-,N/A,,Clear,0,2014-02-09 02:14:00
9:35 PM,-3.3,-5.3,91,30.08,10.0,Calm,Calm,-,N/A,,Clear,0,2014-02-09 02:35:00
9:55 PM,-6.0,-8.3,90,30.08,10.0,SSW,3.5,-,N/A,,Clear,210,2014-02-09 02:55:00
10:14 PM,-4.4,-6.0,93,30.09,10.0,Calm,Calm,-,N/A,,Clear,0,2014-02-09 03:14:00
10:35 PM,-5.8,-8.0,90,30.08,10.0,SW,3.5,-,N/A,,Clear,230,2014-02-09 03:35:00
10:54 PM,-8.0,-10.1,90,30.08,10.0,SW,3.5,-,N/A,,Clear,220,2014-02-09 03:54:00
11:15 PM,-4.9,-7.1,90,30.08,10.0,Calm,Calm,-,N/A,,Clear,0,2014-02-09 04:15:00
11:35 PM,-2.7,-5.3,89,30.07,10.0,West,4.6,-,N/A,,Clear,270,2014-02-09 04:35:00
11:54 PM,-2.4,-5.3,88,30.07,10.0,Calm,Calm,-,N/A,,Clear,0,2014-02-09 04:54:00